User: anonymous   Login
Location: Zlin
(49.2330°N, 17.6670°E)
Time: 04:04:53
(UTC+01:00)
Language:

SEEDS - Orbit

View from above orbital plane
View from above orbital plane
View from above satellite
View from above satellite

Ground track
Ground track

The orbit data is extracted from the following two-line orbital elements,

1 32791U 08021J   24057.44829921  .00011661  00000-0  91360-3 0  9997
2 32791  97.6847  29.5466 0005024 323.1703  36.9175 15.01142529859741
Epoch (UTC): 26 February 2024 10:45:33
Eccentricity: 0.0005024
inclination: 97.6847°
perigee height: 560 km
apogee height: 567 km
right ascension of ascending node: 29.5466°
argument of perigee: 323.1703°
revolutions per day: 15.01142529
mean anomaly at epoch: 36.9175°
orbit number at epoch: 85974

The dashed part of the orbit path shows where the satellite is in the earth's shadow,  

DLR